{"data":{"norad_id":66385,"intl_designator":"2025-257F","name":"STARLINK-35659","alt_names":[],"object_type":"PAYLOAD","status":"ACTIVE","operator":null,"country":"US","launch_date":"2025-11-09","launch_site_code":"AFETR","launch_vehicle":null,"mission":null,"orbit_class":"UNKNOWN","rcs_meters":null,"size_class":null,"mass_kg":null,"dimensions":null,"purposes":["comms"],"wikipedia_slug":null,"has_3d_model":false,"image_url":null,"decayed_at":null,"tle_current":{"epoch":"2026-05-25T05:02:12.259104Z","epoch_age_seconds":53051,"freshness":"FRESH","line1":"1 66385U 25257F   26145.20986411  .00028459  00000+0  84950-3 0  9994","line2":"2 66385  53.1592 220.5664 0001405  96.3778 263.7384 15.34427292 31466","mean_motion":15.34427292,"eccentricity":0.0001405,"inclination_deg":53.1592,"raan_deg":220.5664,"arg_perigee_deg":96.3778,"mean_anomaly_deg":263.7384,"bstar":0.0008495,"rev_number":3146,"period_min":93.846088863753,"perigee_km":461.66099717701,"apogee_km":463.58325049081,"semimajor_km":6840.7591238339,"source":"CELESTRAK","updated_at":"2026-05-25T13:38:21.200998Z"}}}